Renton, WA

8:13 AM PST on December 12, 2017 (GMT -0800)
Renton Municipal

Weather History for KRNT - April, 2013

Change the Weather History Date:

Monday, April 22, 2013

  Actual Average Record
Temperature  
Mean Temperature 48 °F -  
Max Temperature 59 °F 59 °F 79 °F (2005)
Min Temperature 36 °F 42 °F 36 °F (2006)
Degree Days  
Heating Degree Days 18    
Moisture  
Dew Point 36 °F    
Average Humidity 70    
Maximum Humidity 100    
Minimum Humidity 33    
Precipitation  
Precipitation 0.00 in - - ()
Sea Level Pressure  
Sea Level Pressure 30.48 in    
Wind  
Wind Speed 4 mph (NW)    
Max Wind Speed 14 mph    
Max Gust Speed -    
Visibility 9 miles    
Events      
Averages and records for this station are not official NWS values.
T = Trace of Precipitation, MM = Missing Value Source: NWS Daily Summary

Daily Weather History Graph

Daily Weather History Graph

Search for Another Location

Airport or City:

Trip Planner

Search our weather history database for the weather conditions in past years. The results will help you decide how hot, cold, wet, or windy it might be!

Date:

Astronomy

Apr. 22, 2013 Rise Set
Actual Time 6:06 AM PDT 8:08 PM PDT
Civil Twilight 5:33 AM PDT 8:41 PM PDT
Nautical Twilight 4:52 AM PDT 9:23 PM PDT
Astronomical Twilight 4:07 AM PDT 10:08 PM PDT
Moon 4:52 PM PDT (4/22) 4:18 AM PDT (4/22)
Length of Visible Light 15h 08m
Length of Day
14h 01m
Waxing Gibbous, 88% of the Moon is Illuminated
Apr 22
Waxing Gibbous
Apr 25
Full
May 2
Last Quarter
May 9
New
May 17
First Quarter

Hourly Weather History & Observations

Time (PDT) Temp. Windchill Dew Point Humidity Pressure Visibility Wind Dir Wind Speed Gust Speed Precip Events Conditions
12:53 AM 42.1 °F - 39.0 °F 89% 30.41 in 10.0 mi Calm Calm - N/A   Mostly Cloudy
1:53 AM 41.0 °F - 39.0 °F 93% 30.43 in 10.0 mi Calm Calm - N/A   Clear
2:53 AM 39.0 °F 36.8 °F 37.9 °F 96% 30.44 in 10.0 mi SSE 3.5 mph - N/A   Clear
3:53 AM 39.0 °F - 37.9 °F 96% 30.45 in 10.0 mi Calm Calm - N/A   Clear
4:53 AM 37.0 °F - 37.0 °F 100% 30.47 in 10.0 mi Calm Calm - N/A   Clear
5:53 AM 36.0 °F - 35.1 °F 97% 30.49 in 10.0 mi Calm Calm - N/A   Clear
6:53 AM 37.0 °F - 35.1 °F 93% 30.51 in 10.0 mi Calm Calm - N/A   Clear
7:26 AM 39.2 °F - 37.4 °F 93% 30.50 in 6.0 mi Calm Calm - N/A   Scattered Clouds
7:30 AM 39.2 °F 37.0 °F 37.4 °F 93% 30.51 in 0.8 mi NNW 3.5 mph - N/A   Mist
7:53 AM 39.9 °F 37.8 °F 39.0 °F 97% 30.53 in 3.0 mi NW 3.5 mph - N/A   Overcast
8:53 AM 41.0 °F 37.1 °F 39.9 °F 96% 30.53 in 6.0 mi NW 5.8 mph - N/A   Overcast
9:53 AM 43.0 °F 41.3 °F 39.9 °F 89% 30.53 in 10.0 mi Variable 3.5 mph - N/A   Scattered Clouds
10:53 AM 48.9 °F - 41.0 °F 74% 30.54 in 10.0 mi NW 8.1 mph - N/A   Clear
11:53 AM 53.1 °F - 37.9 °F 57% 30.54 in 10.0 mi NW 9.2 mph - N/A   Clear
12:53 PM 55.9 °F - 37.0 °F 49% 30.52 in 10.0 mi NW 11.5 mph - N/A   Clear
1:53 PM 57.0 °F - 37.0 °F 47% 30.50 in 10.0 mi NW 13.8 mph - N/A   Clear
2:53 PM 57.9 °F - 34.0 °F 41% 30.49 in 10.0 mi NW 12.7 mph - N/A   Clear
3:53 PM 59.0 °F - 35.1 °F 41% 30.48 in 10.0 mi NW 12.7 mph - N/A   Clear
4:53 PM 59.0 °F - 32.0 °F 36% 30.46 in 10.0 mi NW 12.7 mph - N/A   Clear
5:53 PM 57.9 °F - 28.9 °F 33% 30.45 in 10.0 mi NW 12.7 mph - N/A   Clear
6:53 PM 57.0 °F - 28.9 °F 34% 30.45 in 10.0 mi NW 12.7 mph - N/A   Clear
7:53 PM 54.0 °F - 28.0 °F 37% 30.45 in 10.0 mi NW 10.4 mph - N/A   Clear
8:53 PM 51.1 °F - 32.0 °F 48% 30.47 in 10.0 mi WNW 4.6 mph - N/A   Clear
9:53 PM 48.9 °F - 36.0 °F 61% 30.46 in 10.0 mi Calm Calm - N/A   Clear
10:53 PM 46.9 °F - 37.0 °F 68% 30.45 in 10.0 mi WNW 3.5 mph - N/A   Clear
11:53 PM 45.0 °F - 36.0 °F 71% 30.44 in 10.0 mi Calm Calm - N/A   Clear